Regional Weather Roundup
Issued by NWS

Home | Current Version | Previous Version | Graphics & Text | Print | Product List | Glossary On
Versions: 1 2 3 4 5 6 7 8 9 10 11 12 13 14 15 16 17 18 19 20 21 22 23 24 25 26 27 28 29 30 31 32 33 34 35 36 37 38 39 40 41 42 43 44 45 46 47 48 49 50
000
ASUS43 KDTX 230410
RWRMI
MICHIGAN HOURLY REGIONAL WEATHER ROUNDUP
NATIONAL WEATHER SERVICE DETROIT/PONTIAC MI
1200 AM EDT THU OCT 23 2014

NOTE: "FAIR" INDICATES FEW OR NO CLOUDS BELOW 12,000 FEET WITH NO
SIGNIFICANT WEATHER AND/OR OBSTRUCTION TO VISIBILITY.

MIZ047>049-052>055-059>063-066>070-074>076-081>083-230500-
SOUTHEAST LOWER MICHIGAN

CITY           SKY/WX    TMP DP  RH WIND       PRES   REMARKS
ADRIAN         CLEAR     39  37  92 N7        30.29R WCI  34
ALMA           CLOUDY    44  38  79 CALM      30.31S
ANN ARBOR      CLEAR     39  35  86 NE6       30.28S WCI  35
BAD AXE        CLEAR     32  32 100 CALM      30.30S FOG
CARO           CLEAR     32  31  98 CALM      30.29F
DETROIT CITY   CLEAR     44  37  76 NW3       30.29S
DETROIT        CLEAR     41  38  89 N3        30.29S
FLINT          CLEAR     37  34  89 CALM      30.30F
GROSSE ILE     CLEAR     45  39  81 N8        30.27S
HILLSDALE      CLEAR     33  33 100 CALM      30.27F FOG
HOWELL         CLEAR     36  34  95 CALM      30.28S

CITY           SKY/WX    TMP DP  RH WIND       PRES   REMARKS
JACKSON        CLEAR     34  33  96 CALM      30.28F
LAMBERTVILLE   CLEAR     41  36  81 CALM      30.28S
LANSING        CLEAR     38  34  85 CALM      30.30S
LAPEER         FAIR      35  34  96 CALM      30.28F
MASON          CLEAR     32  32  99 CALM      30.28F
MONROE         CLEAR     43  39  87 NE5       30.26S
MT. CLEMENS    CLEAR     39  38  96 N8        30.25F WCI  33
PONTIAC        CLEAR     38  35  89 N3        30.27S
PORT HOPE        N/A     35  33  92 W6        30.28F WCI  30
PORT HURON     CLEAR     37  36  93 NW5       30.27F WCI  34
TRI CITIES     CLEAR     39  34  82 CALM      30.31F
TROY           CLEAR     42  38  84 N3        30.30S
SAGINAW HB     CLEAR     36  36 100 CALM      30.30S
$$
MIZ043>046-050>051-056>058-064>065-071>073-077>080-230500-
SOUTHWEST LOWER MICHIGAN

CITY           SKY/WX    TMP DP  RH WIND       PRES   REMARKS
BATTLE CREEK   FOG       34  32  92 W3        30.29S VSB 1
BENTON HARBOR  CLEAR     32  32 100 CALM      30.29S FOG
BIG RAPIDS     CLEAR     32  32 100 CALM      30.29S
COLDWATER      PTCLDY    34  34  98 CALM      30.29R FOG
FREMONT        FAIR      36  35  97 CALM      30.28F
HOLLAND        CLEAR     36  33  89 E5        30.30S WCI  32
GRAND RAPIDS   CLEAR     36  33  89 CALM      30.30S
IONIA          CLOUDY    44  38  81 CALM      30.29S
KALAMAZOO      CLEAR     34  31  88 CALM      30.30R FOG
LUDINGTON        N/A     29  29  98 CALM      30.29S FOG
MARSHALL       PTCLDY    32  31  98 CALM      30.29S FOG
MOUNT PLEASANT FOG       31  30  96 CALM      30.29F VSB 1
MUSKEGON       CLEAR     36  32  85 SE3       30.29F
SOUTH HAVEN    CLEAR     38  37  96 SE5       30.29F WCI  34
$$
MIZ016>042-230500-
NORTHERN LOWER MICHIGAN

CITY           SKY/WX    TMP DP  RH WIND       PRES   REMARKS
ALPENA         CLEAR     29  26  89 W3        30.30F
BEAVER ISLAND  CLEAR     30  30  99 CALM      30.28F
BELLAIRE       MOCLDY    30  29  96 CALM      30.30S FOG
CADILLAC       CLEAR     27  26  99 CALM      30.27S
CHARLEVOIX     CLEAR     33  33 100 SE3       30.32S
FRANKFORT      CLEAR     31  28  90 CALM      30.28S
GAYLORD        CLEAR     33  30  88 CALM      30.27F
GRAYLING       CLEAR     27  26  96 CALM      30.28F
HARBOR SPRINGS CLEAR     33  31  93 NE5       30.29S WCI  28
HOUGHTON LAKE  CLEAR     28  27  96 E3        30.29F
MANISTEE       CLEAR     28  27  93 CALM      30.29S
OSCODA         CLEAR     30  29  96 CALM      30.29F
PELLSTON       CLEAR     29  27  92 CALM      30.30S
TRAVERSE CITY  CLEAR     33  30  88 CALM      30.28S
$$
MIZ007>008-015-230500-
EASTERN UPPER MICHIGAN

CITY           SKY/WX    TMP DP  RH WIND       PRES   REMARKS
KINROSS        CLEAR     32  32 100 CALM      30.28S
MACKINAC ISLAN CLEAR     42  36  80 S7        30.28F
NEWBERRY       CLEAR     33  32  94 SE6       30.27S WCI  28
S. S. MARIE    CLEAR     35  33  92 CALM      30.28S
MUNISING         N/A     37  33  85 S7        30.24S WCI  32
$$
MIZ004>006-011>014-085-230500-
CENTRAL UPPER MICHIGAN

CITY           SKY/WX    TMP DP  RH WIND       PRES   REMARKS
MANISTIQUE     CLEAR     41  38  87 S7        30.26S
ESCANABA       CLEAR     36  30  80 CALM      30.25S
MENOMINEE      CLEAR     39  37  93 S5        30.25F
SAWYER-GWINN   FOG       35  34  96 S12       30.21F VSB 3/4 WCI  27
$$
MIZ001>003-009>011-084-230500-
WESTERN UPPER MICHIGAN

CITY           SKY/WX    TMP DP  RH WIND       PRES   REMARKS
IRON MOUNTAIN  CLOUDY    38  37  97 S8        30.21F FOG     WCI  32
HOUGHTON       CLEAR     41  33  73 SE9       30.12F
COPPER HARBOR    N/A     45  38  76 SW12G21   30.12F
IRONWOOD       MOCLDY    50  34  53 S14G26    30.04F
$$

ABBREVIATIONS USED IN REMARKS
   TC - TEMPERATURE IN CELSIUS
  WCI - WIND CHILL INDEX
   HX - HEAT INDEX
  VSB - VISIBILITY




USA.gov is the U.S. government's official web portal to all federal, state and local government web resources and services.